AirNav   Everest Fuels
 
 1149 users online  

F89 Winnsboro Municipal Airport
Winnsboro, Louisiana, USA

GOING TO WINNSBORO?


FAA INFORMATION EFFECTIVE 16 JULY 2020

Location

FAA Identifier: F89
Lat/Long: 32-09-10.8250N 091-41-54.8050W
32-09.180417N 091-41.913417W
32.1530069,-91.6985569
(estimated)
Elevation: 78 ft. / 23.8 m (surveyed)
Variation: 04E (1985)
From city: 1 mile E of WINNSBORO, LA
Time zone: UTC -5 (UTC -6 during Standard Time)
Zip code: 71295

Airport Operations

Airport use: Open to the public
Activation date: 06/1945
Control tower: no
ARTCC: FORT WORTH CENTER
FSS: DE RIDDER FLIGHT SERVICE STATION
NOTAMs facility: DRI (NOTAM-D service available)
Attendance: ON CALL
318-282-4524
Wind indicator: lighted
Segmented circle: yes
Lights: MIRL RWY 18-36 PRESET LOW INTS DUSK TO DAWN, TO INCREASE INTS ACTIVATE-CTAF.
Beacon: white-green (lighted land airport)
Operates sunset to sunrise.

Airport Communications

CTAF/UNICOM: 122.8

Nearby radio navigation aids

VOR radial/distance  VOR name  Freq  Var
MLUr139/27.7MONROE VORTAC117.2003E
HEZr325/38.0NATCHEZ VOR/DME110.0003E

 
NDB name  Hdg/Dist  Freq  Var  ID
NATCHEZ-ADAMS COUNTY323/34.638800EHAH .... .- ....
TALLULAH259/34.634402ETKH - -.- ....
BASTROP162/37.332903EBQP -... --.- .--.

Airport Services

Fuel available: 100LL
FUEL AVBL 24 HRS SELF SERVE WITH CREDIT CARD.
Parking: tiedowns
Airframe service: MINOR
Powerplant service: MINOR
Bottled oxygen: NONE
Bulk oxygen: NONE

Runway Information

Runway 18/36

Dimensions: 3000 x 75 ft. / 914 x 23 m
Surface: asphalt, in fair condition
Weight bearing capacity: 
Single wheel: 11.0
Runway edge lights: medium intensity
RUNWAY 18  RUNWAY 36
Latitude: 32-09.427833N32-08.933000N
Longitude: 091-41.910833W091-41.916000W
Elevation: 76.0 ft.78.0 ft.
Traffic pattern: leftleft
Runway heading: 176 magnetic, 180 true356 magnetic, 000 true
Markings: basic, in fair conditionbasic, in fair condition
Visual slope indicator: 2-light PAPI on left (3.75 degrees glide path)2-light PAPI on left (3.10 degrees glide path)
Runway end identifier lights: yes
Obstructions: 39 ft. trees, 1100 ft. from runway, 151 ft. right of centerline, 23:1 slope to clear49 ft. tree, 1091 ft. from runway, 151 ft. right of centerline, 17:1 slope to clear

Airport Ownership and Management from official FAA records

Ownership: Publicly-owned
Owner: CITY OF WINNSBORO
PO BOX 250
WINNSBORO, LA 71295
Phone 318-435-9087
Manager: TERRY SHIRLEY
PO BOX 250
WINNSBORO, LA 71295
Phone (318) 439-3676

Airport Operational Statistics

Aircraft based on the field: 21
Single engine airplanes: 20
Multi engine airplanes: 1
    
Aircraft operations: avg 68/day *
80% local general aviation
20% transient general aviation
* for 12-month period ending 18 March 2020

Additional Remarks

HEAVY AGRI ACFT OPS JUNE THRU OCT.
RY 18/36 TREES WEST OF RY OBSTRUCT VIEW OF OPERATING ACFT.
FOR CD CTC MONROE APCH AT 318-327-5641, IF UNAVBL, CTC FORT WORTH ARTCC AT 817-858-7584.

Instrument Procedures

There are no published instrument procedures at F89.

Some nearby airports with instrument procedures:

M79 - John H Hooks Jr Memorial Airport (20 nm N)
KMLU - Monroe Regional Airport (28 nm NW)
KTVR - Vicksburg Tallulah Regional Airport (36 nm E)
0R4 - Concordia Parish Airport (37 nm S)
KBQP - Morehouse Memorial Airport (37 nm N)
 
Loc | Ops | Rwys | IFR | FBO | Links
Com | Nav | Svcs | Stats | Notes
Area around F89 (Winnsboro Municipal Airport)
 
Road maps at: MapQuest Bing Google
 
Aerial photo
WARNING: Photo may not be current or correct
Aerial photo of F89 (Winnsboro Municipal Airport)
Do you have a better or more recent aerial photo of Winnsboro Municipal Airport that you would like to share? If so, please send us your photo.

 
Sectional chart

 
Airport distance calculator
Flying to Winnsboro Municipal Airport? Find the distance to fly.

From to F89

Sunrise and sunset
Times for 07-Aug-2020
 Local
(UTC-5)
 Zulu
(UTC)
Morning civil twilight06:0111:01
Sunrise06:2711:27
Sunset19:5700:57
Evening civil twilight20:2401:24

Current date and time
Zulu (UTC)  07-Aug-2020 22:55:14
Local (UTC-5)  07-Aug-2020 17:55:14
 
METAR
KMLU 
28nm NW 
072153Z 03005KT 10SM CLR 33/21 A3007 RMK AO2 SLP179 T03280206
KTVR 
36nm E 
072153Z AUTO 02006KT 10SM CLR 33/20 A3006 RMK AO2 SLP183 T03330200
K0R4 
37nm S 
072215Z AUTO 00000KT 10SM CLR 33/19 A3004 RMK AO2 T03310187
KBQP 
37nm N 
072215Z AUTO 36003KT 10SM CLR 32/20 A3007 RMK AO2 T03170200 TSNO
KHEZ 
39nm SE 
072156Z AUTO 36006KT 10SM CLR 32/20 A3006 RMK AO2 SLP177 T03220200
KVKS 
39nm E 
072215Z AUTO 33006KT 10SM CLR 32/21 A3004 RMK A01
KRSN 
50nm NW 
072215Z AUTO 07003KT 10SM CLR 31/20 A3010 RMK AO2 T03110196
TAF
KMLU 
28nm NW 
071756Z 0718/0818 VRB05KT P6SM SCT120 BKN250 FM080100 00000KT P6SM FEW150 SCT250 FM081500 VRB03KT P6SM FEW250
NOTAMs
Click for the latest NOTAMs
NOTAMs are issued by the DoD/FAA and will open in a separate window not controlled by AirNav.

 

 
 

FBO, Fuel Providers, and Aircraft Ground Support

  
 Business Name 
 
 Contact 
 
 Services / Description 
 
Fuel Prices
 
Comments
  
City of Winnsboro 318-439-3676
no information available

If you are affiliated with City of Winnsboro and would like to show here your services, contact info, web link, logo, and more, click here
100LL
SS $3.95 
 Updated 10-Apr-2020
 
   write
SS=Self service
Update Fuel Prices
 

Would you like to see your business listed on this page?

 If your business provides an interesting product or service to pilots, flight crews, aircraft, or users of the Winnsboro Municipal Airport, you should consider listing it here.  To start the listing process, click on the button below
 
Add a business
 

Other Pages about Winnsboro Municipal Airport

Update a link
 
Copyright © AirNav, LLC. All rights reserved. Privacy Policy  Contact